Погода в Ташлы-Тале

Россия / Кабардино-Балкарская Республика     43°08′38″N   43°41′36″E
темп.,
°C
ветер,
м/с
пор.,
м/с
влажн.,
%
обл.,
%
осадки,
мм/ч
давл.,
гПа
погр.,
м
20 апреля, вт
вт2000:00+12ссз0192100 0.1 101664
03:00+11з0187100 0.1 101330
06:00+12ю3374100 0.0 100964
09:00+20ю154998 0.0 1007433
12:00+26ююз3530100 0.0 10041330
15:00+23ю453791 0.2 1005936
18:00+19сз1361100 0.0 100668
21:00+14с368168 0.1 1010249
21 апреля, ср
ср2100:00+12ссв1391100 0.3 1014449
03:00+10с138196 0.8 1016441
06:00+10вюв137551 0.0 1017302
09:00+12всв335415 0.0 10181090
12:00+12всв2255100 0.1 10171236
15:00+12всв3364100 0.3 10181094
18:00+10в1377100 0.1 1020452
21:00+9ююв0183100 0.2 1021195
22 апреля, чт
чт2200:00+9ю1184100 0.0 1021123
03:00+8ююз0187100 0.1 1021126
06:00+8в0193100 0.9 1020186
09:00+8ссв2296100 2.9 1022363
12:00+7ссв1294100 0.4 1024337
15:00+8юв1289100 0.6 1022420
18:00+8юв1189100 0.0 1023259
21:00+7ю0193100 0.3 102340
23 апреля, пт
пт2300:00+7зсз0196100 1.8 102271
03:00+6юз2394100 9.6 1023143
06:00+6юз1194100 2.8 102396
09:00+7з1193100 4.9 1024182
12:00+7зюз1191100 2.4 1025272
15:00+10ююз227649 2.6 1023632
18:00+10в117758 0.0 102235
21:00+6юз32825 0.0 102438
24 апреля, сб
сб2400:00+5юз337086 0.0 102344
03:00+5юз336398 0.0 102241
06:00+6юз3357100 0.0 102046
09:00+13всв2245100 0.0 1018585
12:00+16св33425 0.0 10171159
15:00+17св324923 0.0 10171280
18:00+13ссв226975 0.0 101882
21:00+11зсз117895 0.0 101932